timestamp,wind_dir_avg,wind_spd_avg,wind_spd_max_dir,wind_spd_gust,battery_voltage,lat,long
2023-12-02 00:04:00+00:00,215.0,10.75,214.0,12.67,12.41,47.59359,-54.27349
2023-12-02 00:14:00+00:00,216.0,11.54,218.0,13.96,12.41,47.59359,-54.27349
2023-12-02 00:24:00+00:00,217.0,12.0,227.0,15.04,12.41,47.59359,-54.27349
2023-12-02 00:34:00+00:00,214.0,12.76,225.0,15.07,12.41,47.59359,-54.27349
2023-12-02 00:44:00+00:00,214.0,10.52,214.0,11.94,12.41,47.59359,-54.27349
2023-12-02 00:54:00+00:00,215.0,11.0,214.0,13.11,12.41,47.59359,-54.27349
2023-12-02 01:04:00+00:00,217.0,12.76,228.0,15.83,12.41,47.59359,-54.27349
2023-12-02 01:14:00+00:00,221.0,11.58,232.0,15.18,12.41,47.59359,-54.27349
2023-12-02 01:24:00+00:00,217.0,10.77,219.0,12.35,12.41,47.59359,-54.27349
2023-12-02 01:34:00+00:00,225.0,11.71,233.0,14.7,12.41,47.59359,-54.27349
2023-12-02 01:44:00+00:00,221.0,12.58,226.0,15.35,12.41,47.59359,-54.27349
2023-12-02 01:54:00+00:00,230.0,11.29,236.0,15.01,12.41,47.59359,-54.27349
2023-12-02 02:04:00+00:00,227.0,11.64,240.0,15.64,12.41,47.59359,-54.27349
2023-12-02 02:14:00+00:00,226.0,9.44,225.0,10.95,12.41,47.59359,-54.27349
2023-12-02 02:24:00+00:00,229.0,9.22,233.0,11.92,12.41,47.59359,-54.27349
2023-12-02 02:34:00+00:00,232.0,9.66,242.0,13.91,12.41,47.59359,-54.27349
2023-12-02 02:44:00+00:00,229.0,8.84,232.0,10.9,12.41,47.59359,-54.27349
2023-12-02 02:54:00+00:00,232.0,9.06,234.0,10.1,12.41,47.59359,-54.27349
2023-12-02 03:04:00+00:00,239.0,8.26,243.0,9.12,12.41,47.59359,-54.27349
2023-12-02 03:14:01+00:00,235.0,8.93,234.0,9.76,12.41,47.59359,-54.27349
2023-12-02 03:24:01+00:00,232.0,8.59,241.0,9.53,12.41,47.59359,-54.27349
2023-12-02 03:34:01+00:00,234.0,9.19,235.0,10.15,12.41,47.59359,-54.27349
2023-12-02 03:44:01+00:00,233.0,8.75,231.0,9.97,12.41,47.59359,-54.27349
2023-12-02 03:54:01+00:00,233.0,8.55,227.0,9.68,12.41,47.59359,-54.27349
2023-12-02 04:04:01+00:00,229.0,9.53,230.0,10.53,12.41,47.59359,-54.27349
2023-12-02 04:14:00+00:00,230.0,9.52,224.0,10.79,12.41,47.59359,-54.27349
2023-12-02 04:24:00+00:00,250.0,10.64,249.0,14.18,12.41,47.59359,-54.27349
2023-12-02 04:34:00+00:00,250.0,8.64,258.0,10.98,12.41,47.59359,-54.27349
2023-12-02 04:44:00+00:00,246.0,9.38,250.0,12.04,12.41,47.59359,-54.27349
2023-12-02 04:54:00+00:00,241.0,8.62,239.0,9.47,12.41,47.59359,-54.27349
2023-12-02 05:04:00+00:00,245.0,8.0,244.0,9.24,12.41,47.59359,-54.27349
2023-12-02 05:14:00+00:00,243.0,7.99,244.0,8.89,12.33,47.59359,-54.27349
2023-12-02 05:24:00+00:00,246.0,7.38,241.0,8.04,12.33,47.59359,-54.27349
2023-12-02 05:34:00+00:00,244.0,7.99,241.0,8.78,12.33,47.59359,-54.27349
2023-12-02 05:44:00+00:00,246.0,7.91,242.0,9.11,12.33,47.59359,-54.27349
2023-12-02 05:54:00+00:00,249.0,7.7,246.0,8.32,12.33,47.59359,-54.27349
2023-12-02 06:04:00+00:00,256.0,6.37,259.0,7.04,12.33,47.59359,-54.27349
2023-12-02 06:14:00+00:00,255.0,5.7,253.0,6.49,12.33,47.59359,-54.27349
2023-12-02 06:24:00+00:00,247.0,6.26,250.0,6.79,12.33,47.59359,-54.27349
2023-12-02 06:34:00+00:00,241.0,6.74,245.0,7.69,12.33,47.59359,-54.27349
2023-12-02 06:44:00+00:00,238.0,6.0,242.0,7.08,12.33,47.59359,-54.27349
2023-12-02 06:54:00+00:00,256.0,5.61,262.0,7.11,12.33,47.59359,-54.27349
2023-12-02 07:04:00+00:00,258.0,6.46,255.0,7.08,12.33,47.59359,-54.27349
2023-12-02 07:14:00+00:00,262.0,4.84,262.0,5.62,12.33,47.59359,-54.27349
2023-12-02 07:24:00+00:00,244.0,4.13,243.0,5.24,12.33,47.59359,-54.27349
2023-12-02 07:34:00+00:00,240.0,2.57,228.0,3.19,12.33,47.59359,-54.27349
2023-12-02 07:44:00+00:00,225.0,3.66,226.0,4.11,12.33,47.59359,-54.27349
2023-12-02 07:54:00+00:00,219.0,3.49,214.0,4.14,12.33,47.59359,-54.27349
2023-12-02 08:04:00+00:00,217.0,3.35,217.0,3.93,12.33,47.59359,-54.27349
2023-12-02 08:14:00+00:00,210.0,4.39,211.0,4.9,12.33,47.59359,-54.27349
2023-12-02 08:24:00+00:00,215.0,4.58,217.0,5.38,12.33,47.59359,-54.27349
2023-12-02 08:34:00+00:00,241.0,5.01,244.0,5.85,12.33,47.59359,-54.27349
2023-12-02 08:44:00+00:00,256.0,4.35,248.0,5.15,12.33,47.59359,-54.27349
2023-12-02 08:54:00+00:00,260.0,4.75,252.0,6.08,12.33,47.59359,-54.27349
2023-12-02 09:04:00+00:00,288.0,5.81,293.0,6.64,12.33,47.59359,-54.27349
2023-12-02 09:14:00+00:00,283.0,5.28,288.0,6.09,12.33,47.59359,-54.27349
2023-12-02 09:24:00+00:00,270.0,4.68,271.0,5.13,12.33,47.59359,-54.27349
2023-12-02 09:34:00+00:00,264.0,3.99,267.0,4.6,12.33,47.59359,-54.27349
2023-12-02 09:44:00+00:00,274.0,4.52,267.0,5.37,12.33,47.59359,-54.27349
2023-12-02 09:54:00+00:00,265.0,3.88,268.0,4.36,12.33,47.59359,-54.27349
2023-12-02 10:04:00+00:00,271.0,3.49,268.0,3.96,12.33,47.59359,-54.27349
2023-12-02 10:14:00+00:00,259.0,2.82,263.0,3.1,12.25,47.59359,-54.27349
2023-12-02 10:24:00+00:00,269.0,2.98,273.0,3.63,12.25,47.59359,-54.27349
2023-12-02 10:34:00+00:00,256.0,2.87,268.0,3.89,12.25,47.59359,-54.27349
2023-12-02 10:44:00+00:00,252.0,3.24,251.0,3.89,12.25,47.59359,-54.27349
2023-12-02 10:54:00+00:00,228.0,2.97,228.0,3.44,12.25,47.59359,-54.27349
2023-12-02 11:04:00+00:00,259.0,2.87,254.0,3.37,12.25,47.59359,-54.27349
2023-12-02 11:14:00+00:00,270.0,3.42,271.0,3.74,12.25,47.59359,-54.27349
2023-12-02 11:24:00+00:00,288.0,2.23,293.0,2.54,12.25,47.59359,-54.27349
2023-12-02 11:34:00+00:00,316.0,2.73,318.0,2.99,12.25,47.59359,-54.27349
2023-12-02 11:44:00+00:00,288.0,1.35,294.0,1.57,12.25,47.59359,-54.27349
2023-12-02 11:54:00+00:00,255.0,1.42,260.0,1.69,12.25,47.59359,-54.27349
2023-12-02 12:04:00+00:00,315.0,0.01,241.0,0.0,12.25,47.59359,-54.27349
2023-12-02 12:14:00+00:00,315.0,0.01,207.0,0.0,12.33,47.59359,-54.27349
2023-12-02 12:24:00+00:00,227.0,1.17,225.0,1.35,12.33,47.59359,-54.27349
2023-12-02 12:34:00+00:00,249.0,1.86,252.0,2.2,12.33,47.59359,-54.27349
2023-12-02 12:44:00+00:00,221.0,1.72,216.0,2.5,12.33,47.59359,-54.27349
2023-12-02 12:54:00+00:00,256.0,0.92,254.0,1.11,12.33,47.59359,-54.27349
2023-12-02 13:04:00+00:00,308.0,1.41,314.0,1.7,12.33,47.59359,-54.27349
2023-12-02 13:14:00+00:00,330.0,2.37,331.0,2.6,12.41,47.59359,-54.27349
2023-12-02 13:24:00+00:00,315.0,0.01,331.0,0.0,12.41,47.59359,-54.27349
2023-12-02 13:34:00+00:00,18.0,1.48,22.0,1.76,12.41,47.59359,-54.27349
2023-12-02 13:44:00+00:00,4.0,2.74,5.0,2.95,12.41,47.59359,-54.27349
2023-12-02 13:54:00+00:00,2.0,2.1,7.0,2.36,12.41,47.59359,-54.27349
2023-12-02 14:04:00+00:00,17.0,2.53,17.0,2.95,12.41,47.59359,-54.27349
2023-12-02 14:14:00+00:00,26.0,2.27,31.0,2.72,12.73,47.59359,-54.27349
2023-12-02 14:24:00+00:00,13.0,3.08,14.0,3.46,12.73,47.59359,-54.27349
2023-12-02 14:34:00+00:00,4.0,3.61,2.0,4.14,12.73,47.59359,-54.27349
2023-12-02 14:44:00+00:00,19.0,3.71,15.0,4.19,12.73,47.59359,-54.27349
2023-12-02 14:54:00+00:00,28.0,4.61,30.0,4.98,12.73,47.59359,-54.27349
2023-12-02 15:04:00+00:00,40.0,5.15,39.0,5.59,12.73,47.59359,-54.27349
2023-12-02 15:14:00+00:00,40.0,5.1,33.0,5.9,13.37,47.59359,-54.27349
2023-12-02 15:24:00+00:00,43.0,3.7,47.0,4.11,13.37,47.59359,-54.27349
2023-12-02 15:34:00+00:00,44.0,3.64,45.0,4.13,13.37,47.59359,-54.27349
2023-12-02 15:44:00+00:00,44.0,3.71,42.0,4.25,13.37,47.59359,-54.27349
2023-12-02 15:54:00+00:00,47.0,3.84,46.0,4.38,13.37,47.59359,-54.27349
2023-12-02 16:04:00+00:00,50.0,3.82,51.0,4.16,13.37,47.59359,-54.27349
2023-12-02 16:14:00+00:00,42.0,4.15,42.0,4.57,12.97,47.59359,-54.27349
2023-12-02 16:24:00+00:00,46.0,3.98,48.0,4.49,12.97,47.59359,-54.27349
2023-12-02 16:34:00+00:00,50.0,4.67,52.0,5.0,12.97,47.59359,-54.27349
2023-12-02 16:44:00+00:00,40.0,4.65,50.0,5.14,12.97,47.59359,-54.27349
2023-12-02 16:54:00+00:00,34.0,4.87,39.0,5.39,12.97,47.59359,-54.27349
2023-12-02 17:04:00+00:00,37.0,5.3,38.0,5.91,12.97,47.59359,-54.27349
2023-12-02 17:14:00+00:00,34.0,5.5,36.0,6.04,12.73,47.59359,-54.27349
2023-12-02 17:24:00+00:00,29.0,5.64,34.0,6.24,12.73,47.59359,-54.27349
2023-12-02 17:34:00+00:00,31.0,5.59,34.0,6.08,12.73,47.59359,-54.27349
2023-12-02 17:44:00+00:00,26.0,5.23,24.0,6.09,12.73,47.59359,-54.27349
2023-12-02 17:54:00+00:00,32.0,6.22,33.0,6.99,12.73,47.59359,-54.27349
2023-12-02 18:04:00+00:00,32.0,5.79,30.0,6.42,12.73,47.59359,-54.27349
2023-12-02 18:14:00+00:00,26.0,5.53,23.0,6.16,12.57,47.59359,-54.27349
2023-12-02 18:24:00+00:00,25.0,5.6,25.0,6.03,12.57,47.59359,-54.27349
2023-12-02 18:34:00+00:00,26.0,5.0,33.0,5.83,12.57,47.59359,-54.27349
2023-12-02 18:44:00+00:00,31.0,4.69,34.0,5.37,12.57,47.59359,-54.27349
2023-12-02 18:54:00+00:00,36.0,5.27,40.0,5.76,12.57,47.59359,-54.27349
2023-12-02 19:04:00+00:00,47.0,5.5,50.0,6.25,12.57,47.59359,-54.27349
2023-12-02 19:14:00+00:00,41.0,4.73,46.0,5.43,12.49,47.59359,-54.27349
2023-12-02 19:24:00+00:00,39.0,6.12,39.0,6.83,12.49,47.59359,-54.27349
2023-12-02 19:34:00+00:00,31.0,6.13,32.0,6.67,12.49,47.59359,-54.27349
2023-12-02 19:44:00+00:00,30.0,5.59,32.0,6.63,12.49,47.59359,-54.27349
2023-12-02 19:54:00+00:00,33.0,5.2,34.0,5.91,12.49,47.59359,-54.27349
2023-12-02 20:04:00+00:00,38.0,4.81,44.0,5.52,12.49,47.59359,-54.27349
2023-12-02 20:14:00+00:00,31.0,4.96,34.0,5.65,12.41,47.59359,-54.27349
2023-12-02 20:24:00+00:00,28.0,5.17,35.0,5.89,12.41,47.59359,-54.27349
2023-12-02 20:34:00+00:00,21.0,5.28,22.0,5.78,12.41,47.59359,-54.27349
2023-12-02 20:44:00+00:00,31.0,5.51,30.0,5.96,12.41,47.59359,-54.27349
2023-12-02 20:54:00+00:00,27.0,5.76,27.0,6.3,12.41,47.59359,-54.27349
2023-12-02 21:04:00+00:00,24.0,4.97,29.0,5.56,12.41,47.59359,-54.27349
2023-12-02 21:14:00+00:00,27.0,4.84,30.0,5.77,12.33,47.59359,-54.27349
2023-12-02 21:24:00+00:00,34.0,5.81,32.0,6.35,12.33,47.59359,-54.27349
2023-12-02 21:34:00+00:00,60.0,5.92,58.0,7.02,12.33,47.59359,-54.27349
2023-12-02 21:44:00+00:00,55.0,5.7,53.0,6.34,12.33,47.59359,-54.27349
2023-12-02 21:54:00+00:00,52.0,6.53,51.0,7.27,12.33,47.59359,-54.27349
2023-12-02 22:04:00+00:00,58.0,5.17,52.0,5.96,12.33,47.59359,-54.27349
2023-12-02 22:14:00+00:00,61.0,5.02,56.0,5.67,12.33,47.59359,-54.27349
2023-12-02 22:24:00+00:00,58.0,5.48,58.0,5.88,12.33,47.59359,-54.27349
2023-12-02 22:34:00+00:00,54.0,4.9,56.0,5.69,12.33,47.59359,-54.27349
2023-12-02 22:44:00+00:00,51.0,5.34,50.0,5.99,12.33,47.59359,-54.27349
2023-12-02 22:54:00+00:00,56.0,3.94,54.0,5.34,12.33,47.59359,-54.27349
2023-12-02 23:04:00+00:00,47.0,5.19,39.0,6.16,12.33,47.59359,-54.27349
2023-12-02 23:14:00+00:00,49.0,4.63,52.0,5.43,12.25,47.59359,-54.27349
2023-12-02 23:24:00+00:00,48.0,4.87,41.0,5.71,12.25,47.59359,-54.27349
2023-12-02 23:34:00+00:00,42.0,5.01,44.0,5.7,12.25,47.59359,-54.27349
2023-12-02 23:44:00+00:00,44.0,5.28,48.0,5.91,12.25,47.59359,-54.27349
2023-12-02 23:54:00+00:00,47.0,4.88,50.0,5.56,12.25,47.59359,-54.27349
